GFSMW_sfc_rhum_102.txt.gz
RH
21 37 41 50 61 75 77 79 86 87 90 94 97 97 96 96 97 94 86 89 91 86 83 71 75 74 71 82 71 71 68 68 65 66 68 64 60 64 64 67 68 63 65
26 40 45 54 71 75 74 78 83 88 85 88 92 96 96 94 93 98 90 88 89 84 75 72 76 67 73 73 72 71 74 71 68 68 69 76 68 64 63 67 68 72 66
27 41 48 57 72 76 74 77 76 86 86 86 90 96 98 97 97 96 97 88 85 83 82 79 80 74 68 77 74 75 70 75 71 66 71 74 74 72 70 67 69 68 78
16 38 46 55 69 73 72 69 77 86 85 84 86 94 98 98 98 95 94 94 87 87 86 87 82 81 77 76 77 73 74 73 75 73 67 72 76 84 81 68 68 70 66
17 37 42 49 55 70 76 69 77 84 81 86 84 93 98 98 98 98 98 95 93 88 87 89 81 77 76 82 81 82 77 78 72 72 75 75 78 83 85 84 74 63 55
20 30 38 45 52 71 73 75 76 80 84 87 85 88 93 96 97 98 98 97 95 92 91 82 88 87 86 86 83 80 79 83 80 73 74 78 81 80 86 91 86 88 79
27 31 38 43 51 73 74 78 77 82 84 86 86 86 89 90 93 93 95 96 94 93 91 86 93 91 84 79 85 87 86 86 86 83 86 84 79 81 84 90 92 94 93
29 31 37 43 52 69 72 74 77 78 84 86 86 85 82 86 87 87 88 88 88 85 83 84 82 80 73 80 83 82 88 90 92 88 86 85 89 88 87 89 94 95 93
27 30 35 44 52 66 72 72 74 68 80 82 82 82 78 77 82 80 80 82 84 85 86 81 81 87 82 83 85 82 85 85 86 89 89 83 84 94 91 88 86 90 94
26 30 32 42 47 58 64 69 67 67 69 75 78 76 75 73 73 80 82 78 77 73 84 82 79 76 73 74 80 77 77 82 86 88 88 87 86 88 90 86 86 87 90
23 29 31 39 41 52 58 66 63 61 68 70 72 73 72 70 68 72 77 75 74 72 76 78 76 73 72 74 75 74 73 73 77 81 84 83 82 87 87 88 89 91 93
21 26 30 38 40 49 54 60 61 58 63 68 69 66 70 70 69 71 67 68 74 71 68 72 72 69 69 70 71 76 70 77 79 79 82 81 80 86 86 88 92 94 92
20 24 29 35 39 46 50 56 58 54 56 60 68 70 70 68 71 71 73 72 71 70 66 66 69 68 68 68 72 72 73 73 74 75 78 79 86 89 95 97 96 94 95
19 26 28 32 37 42 46 50 56 53 53 57 63 69 71 70 69 68 69 72 71 72 70 71 70 70 67 64 65 63 69 72 73 83 95 96 97 98 98 98 98 98 99
17 21 27 31 36 40 45 45 53 54 52 53 60 66 69 69 68 70 71 70 69 67 66 68 67 67 67 71 91 83 82 95 96 95 91 94 94 95 96 93 97 97 99
17 15 20 26 31 37 43 45 50 56 55 55 58 59 65 65 69 71 72 73 72 70 72 74 85 86 86 99 100 95 94 93 94 96 96 94 94 93 93 93 94 97 98
18 17 19 22 30 36 39 45 48 56 57 57 55 56 59 62 68 67 69 74 82 87 91 91 92 95 94 96 95 94 93 94 95 95 94 92 91 92 89 92 91 94 95
18 20 25 26 25 32 36 43 42 52 58 57 54 54 58 60 62 74 90 94 93 94 94 94 93 94 93 93 93 92 90 93 94 94 92 93 94 94 92 90 92 96 96
26 33 34 34 29 32 37 39 41 46 52 55 55 54 59 86 88 94 95 94 94 94 94 92 93 94 96 93 91 87 89 91 95 92 92 89 90 86 87 91 94 94 94
48 38 39 41 46 64 48 44 52 66 86 85 84 83 85 88 93 92 93 92 91 92 91 93 93 92 94 93 89 85 87 90 90 87 85 84 85 85 88 86 88 90 91
67 62 76 79 77 76 78 85 87 92 86 83 84 85 86 88 90 91 90 91 92 91 94 93 93 91 88 90 88 87 87 88 88 86 82 83 82 81 78 78 87 89 89
76 77 83 82 77 74 78 86 90 84 83 84 84 85 84 82 85 89 91 90 90 92 93 93 92 90 86 80 76 78 81 80 83 84 84 86 80 78 78 82 79 78 79
76 76 80 82 80 78 80 89 86 81 82 83 86 83 81 82 83 88 90 92 89 90 91 91 92 94 92 84 76 75 76 82 85 85 78 74 72 74 85 79 75 80 82
80 77 80 85 87 81 80 80 80 77 78 82 83 83 86 86 84 82 81 85 88 88 87 89 91 89 84 83 80 78 79 70 78 78 74 74 72 73 72 69 67 74 74
82 80 85 87 86 81 80 76 76 76 80 81 84 86 86 87 86 86 86 88 91 88 92 91 87 91 92 80 70 68 73 75 74 81 75 77 73 70 67 66 63 66 67
87 87 87 85 85 83 84 82 77 75 77 82 82 87 85 83 81 83 92 90 87 80 76 76 80 77 69 62 60 57 57 54 59 72 82 87 87 81 71 75 75 72 75

GFSMW_sfc_rhum_108.txt.gz
RH
36 56 73 81 90 94 94 95 96 98 98 99 99 99 98 98 98 96 92 95 94 90 89 77 80 76 69 73 79 77 72 81 74 73 74 75 78 85 79 80 82 85 84
63 70 84 86 88 94 94 96 96 98 97 98 98 96 99 94 94 94 93 91 94 89 86 79 74 76 74 79 81 72 75 74 70 73 75 74 69 74 79 86 80 86 80
63 74 86 96 96 96 95 94 95 93 93 96 98 99 99 99 97 97 97 96 91 87 85 81 74 75 78 86 77 70 63 63 80 62 73 80 75 76 71 78 89 89 94
56 66 78 96 96 95 94 94 94 88 92 96 97 96 98 96 96 96 92 93 92 89 84 82 80 79 80 79 77 66 71 64 64 82 73 75 72 80 75 75 75 83 88
52 65 75 84 93 95 94 91 94 91 91 92 90 94 96 95 95 95 98 92 95 88 85 83 85 86 84 85 76 82 85 82 77 72 83 80 84 90 78 79 73 80 79
50 59 68 86 94 93 94 92 92 90 91 91 93 95 96 96 96 95 95 97 95 95 90 87 88 89 88 87 92 94 90 94 87 83 76 78 78 83 88 93 89 84 81
45 65 89 89 94 96 95 94 90 95 90 91 94 94 95 96 95 94 96 91 98 97 97 94 94 94 93 94 95 95 96 95 94 89 87 82 78 79 86 87 90 93 92
41 66 80 83 89 91 93 90 93 94 90 91 94 93 97 93 94 94 95 94 95 95 96 94 91 92 93 94 94 96 97 97 97 95 93 89 89 84 83 84 89 94 96
60 67 76 83 86 88 91 94 91 92 88 90 93 94 95 97 93 93 92 95 94 95 94 95 97 96 95 95 95 96 95 95 95 93 93 92 92 94 93 90 87 84 88
64 64 70 84 84 85 88 93 86 90 87 89 91 92 97 97 96 93 95 94 94 95 96 95 94 96 96 96 95 96 95 94 90 89 93 94 89 93 96 91 91 92 87
47 60 62 78 83 85 89 93 89 85 81 81 90 93 97 96 95 88 89 92 91 94 95 94 96 94 96 96 96 93 88 88 83 81 82 81 83 89 89 93 92 93 94
41 62 59 75 85 87 89 91 86 85 84 77 86 88 93 94 90 90 91 91 90 88 87 87 92 89 87 91 89 87 82 86 84 86 89 90 88 92 90 97 96 96 94
43 52 68 70 82 84 86 86 86 84 83 89 88 89 90 94 96 93 93 93 89 89 87 85 84 84 84 88 86 84 84 88 85 86 90 92 95 97 98 97 98 98 95
43 49 75 77 82 83 83 85 85 82 83 84 86 93 94 90 92 94 92 91 90 91 89 86 83 81 83 80 81 84 90 91 94 93 92 92 94 96 95 93 96 95 97
39 45 62 75 82 86 86 81 82 83 82 81 76 86 87 89 86 91 92 91 89 87 90 90 88 84 82 82 84 84 89 94 94 93 91 93 92 93 93 91 95 94 95
68 71 52 63 72 77 84 82 81 81 81 83 84 81 85 86 89 89 89 88 92 93 92 94 90 92 90 100 99 94 94 93 95 97 96 95 94 97 98 94 95 96 96
71 76 77 73 81 68 72 81 84 81 81 84 82 83 86 87 89 89 91 93 92 90 92 93 94 97 96 96 95 94 94 95 95 95 96 97 98 98 94 98 96 97 98
77 83 84 81 77 80 72 76 82 86 83 83 82 83 84 84 88 91 94 95 94 96 96 96 95 96 95 95 94 92 91 94 95 96 96 96 98 99 98 96 96 97 92
82 85 83 82 82 86 84 76 81 88 86 84 83 82 84 96 97 97 97 96 95 96 96 94 94 96 97 92 91 88 90 93 96 95 95 95 96 93 90 94 91 83 86
80 84 82 81 86 92 88 87 88 86 97 98 98 96 95 94 96 95 95 94 93 95 94 96 94 94 96 90 86 84 86 92 93 94 96 95 96 93 91 88 86 93 95
84 83 86 89 87 92 92 95 96 97 97 94 93 94 92 92 92 93 92 93 94 94 95 96 96 95 94 95 88 84 85 88 90 93 94 93 86 78 76 77 82 83 78
86 85 90 89 82 86 92 96 97 96 94 93 93 92 91 88 88 92 92 91 92 94 95 95 95 94 94 91 91 92 90 84 89 93 94 89 79 72 73 71 66 67 76
88 87 90 88 84 84 89 96 98 92 92 93 94 92 89 89 89 92 93 92 90 91 92 91 92 94 95 97 95 92 90 87 88 84 76 75 71 71 73 68 68 78 83
88 84 86 90 92 86 85 86 87 86 88 92 91 90 90 91 90 88 89 90 90 90 88 91 93 95 94 95 94 87 87 83 79 74 72 75 77 77 75 72 73 79 81
89 87 89 90 90 88 89 85 84 83 88 88 88 88 87 88 90 92 92 92 95 89 91 94 93 94 96 96 93 90 89 84 80 84 81 80 76 77 76 77 77 79 77
90 92 93 92 91 88 88 89 86 84 88 88 88 90 89 88 87 88 94 93 94 93 90 93 92 95 92 91 85 79 75 80 81 81 87 92 92 90 87 90 90 85 87

GFSMW_sfc_rhum_111.txt.gz
RH
25 30 78 89 95 96 94 94 97 98 98 97 97 98 98 99 99 99 89 88 91 94 91 80 83 75 65 70 77 80 77 90 80 80 84 85 93 94 93 94 93 92 91
31 64 92 93 94 94 92 95 95 98 98 98 98 98 96 98 98 97 96 90 92 92 88 79 80 71 66 76 80 74 91 86 76 78 78 88 78 84 87 93 87 93 92
27 65 93 95 93 94 94 95 96 97 97 97 98 99 99 99 99 99 98 97 93 92 86 79 76 70 68 69 79 77 72 75 82 68 76 78 79 81 82 86 91 89 95
30 59 88 97 96 93 93 95 96 98 97 97 98 97 97 98 96 95 95 96 95 95 92 82 75 70 72 66 73 74 73 76 73 81 70 69 71 80 76 77 85 89 88
36 67 81 88 92 95 97 97 97 96 92 96 96 97 98 97 98 95 94 97 96 92 92 86 78 78 73 79 74 81 86 73 68 70 84 84 88 84 75 79 77 79 79
32 52 66 86 94 98 97 98 97 90 90 92 96 95 96 97 98 98 99 97 97 93 91 90 88 86 83 85 83 86 84 86 82 82 77 82 80 86 87 86 86 81 78
44 40 69 92 96 98 97 97 96 91 88 92 93 95 95 92 95 95 96 95 97 98 93 92 92 91 90 91 88 88 89 87 86 91 88 84 78 82 85 88 91 90 86
48 52 65 87 94 94 96 95 96 92 88 90 93 91 93 92 92 89 92 92 90 96 96 92 92 91 92 92 90 91 94 96 95 97 96 95 92 89 85 84 91 95 92
52 50 74 85 89 94 95 94 95 89 90 88 96 94 93 94 93 93 93 95 93 95 96 94 95 96 95 94 94 96 98 98 98 96 98 98 97 97 93 90 87 89 94
57 49 79 86 88 88 92 94 93 89 94 85 93 96 94 94 95 94 96 98 97 95 96 96 94 95 96 95 95 97 98 98 98 98 97 96 95 97 97 94 93 94 90
66 57 58 83 87 91 94 94 95 95 95 88 91 96 95 95 96 97 94 96 97 96 97 96 96 96 96 96 97 96 96 96 98 97 96 92 89 94 96 97 97 97 96
68 54 51 88 94 95 90 93 94 95 93 92 88 95 97 95 95 96 96 95 96 95 96 97 96 95 95 95 95 96 96 97 98 96 94 90 88 94 94 98 97 98 97
65 55 50 90 92 92 92 88 93 91 89 89 87 91 95 95 95 96 94 95 93 92 92 93 96 96 95 95 94 94 90 90 89 91 94 95 94 98 98 97 97 97 94
70 67 71 89 90 92 92 87 87 90 90 89 81 89 92 94 95 96 96 96 95 93 90 90 92 93 93 94 92 89 92 94 94 94 93 92 93 95 95 94 96 95 96
80 74 77 89 92 91 90 89 87 92 92 93 90 83 89 91 96 98 97 95 95 95 93 91 89 90 90 91 93 94 95 94 95 94 91 93 93 93 93 92 96 95 96
80 75 74 76 77 82 90 88 88 89 92 93 91 84 92 94 96 98 97 95 95 97 97 96 93 94 93 100 100 96 95 94 95 97 96 94 93 92 93 92 94 95 95
81 81 81 79 82 81 78 88 88 88 88 90 90 90 94 94 94 96 96 96 95 92 95 95 96 98 98 97 96 95 95 95 95 96 96 96 96 93 93 94 94 97 93
82 82 82 80 81 81 84 81 84 88 90 89 89 89 93 94 94 96 98 98 97 97 98 98 97 97 97 96 95 94 93 96 96 96 96 97 97 96 94 92 94 94 95
80 81 81 80 83 88 89 85 87 90 90 92 91 88 91 98 97 98 98 97 97 97 97 96 96 97 98 94 92 90 92 94 96 95 93 94 96 95 91 91 93 92 86
81 82 83 83 85 90 92 92 94 94 94 94 94 96 97 97 98 97 97 96 95 97 95 97 96 94 96 92 90 87 88 93 94 94 97 94 94 91 86 88 87 88 82
85 83 87 91 86 88 93 98 98 98 96 97 98 98 97 97 95 95 95 95 96 96 97 97 97 94 93 94 89 85 86 89 91 91 93 93 88 85 82 81 82 80 72
87 84 86 88 86 87 94 97 98 97 93 92 94 96 95 92 92 95 95 94 94 96 96 97 97 95 96 94 92 91 91 91 91 95 96 93 86 78 75 74 71 72 74
86 82 86 88 86 86 90 96 97 94 92 92 95 97 96 97 93 95 95 94 92 93 93 92 94 96 95 96 93 92 91 90 92 90 90 86 83 81 84 84 81 78 81
90 83 87 93 95 88 86 88 88 87 88 92 92 91 92 92 92 93 96 96 94 95 95 93 94 94 93 94 93 93 93 90 89 90 86 87 87 83 79 76 75 78 80
90 88 91 93 95 90 89 83 84 83 88 88 87 87 86 87 89 88 87 90 92 87 92 93 91 92 95 96 94 93 92 93 92 92 88 86 82 82 79 77 74 75 78
92 94 91 91 91 90 90 85 79 81 87 87 86 89 88 89 89 88 94 92 93 93 93 95 93 97 94 93 91 90 89 88 86 87 90 93 92 88 81 85 87 86 85

GFSMW_sfc_rhum_114.txt.gz
RH
23 30 42 76 96 98 97 96 97 97 98 98 98 99 98 98 98 98 97 95 93 91 95 94 91 86 78 76 75 72 77 94 91 93 93 91 94 95 95 94 92 89 88
24 23 48 93 98 97 95 96 94 97 96 95 92 97 96 97 97 98 96 94 98 95 92 92 88 80 74 78 76 72 86 91 84 90 88 92 87 92 92 94 92 93 88
26 25 39 94 97 98 96 94 95 95 97 91 89 99 98 99 100 99 98 97 97 95 91 87 84 80 71 74 73 73 69 82 89 73 80 85 90 89 90 94 91 90 91
32 28 41 93 97 96 96 95 96 94 98 98 90 95 92 96 98 97 96 95 97 96 92 85 81 75 70 71 73 72 71 80 81 82 72 74 77 86 83 79 90 92 89
52 49 44 86 94 97 98 97 92 94 97 98 96 92 96 95 96 98 98 97 95 94 94 90 86 79 76 72 72 83 86 83 73 79 82 83 85 81 77 77 78 82 85
59 54 47 72 96 98 98 94 92 95 97 97 97 97 97 98 98 97 98 98 98 97 95 92 90 84 82 82 80 84 88 89 77 81 80 80 80 83 83 83 84 82 78
62 59 56 72 96 96 95 92 91 97 97 97 96 97 96 93 96 96 95 98 97 98 98 94 92 88 82 84 79 88 89 88 85 86 86 82 80 83 86 87 92 87 86
63 62 59 58 92 89 92 90 90 95 96 94 95 94 95 97 97 95 95 95 94 95 94 93 91 86 80 86 86 87 87 89 92 92 93 93 91 88 86 86 89 92 91
68 61 59 55 94 91 88 91 88 86 94 94 91 92 92 92 94 96 96 96 92 93 97 93 94 91 88 90 86 89 92 90 93 95 97 95 98 98 97 96 92 92 94
66 61 57 56 57 92 86 93 87 83 91 92 89 90 92 93 94 96 96 97 94 93 92 97 96 96 92 89 90 91 91 91 96 96 96 97 99 98 99 99 98 97 95
80 70 60 58 58 89 90 94 95 85 85 86 88 94 94 95 95 96 96 97 98 97 96 95 96 97 94 92 93 93 92 92 94 95 95 95 96 98 98 99 98 98 98
72 74 73 68 90 93 92 94 94 91 89 92 89 94 95 95 96 97 96 98 99 97 96 97 96 97 95 95 94 96 95 95 97 98 98 97 98 98 97 98 98 98 96
71 70 75 76 95 93 90 92 93 90 88 97 89 96 96 96 96 96 96 97 97 98 98 98 98 98 97 96 95 95 96 96 96 97 97 97 98 98 99 99 99 98 97
73 78 81 79 80 94 93 89 92 88 91 95 89 95 96 95 95 94 96 96 95 96 96 95 96 97 97 96 96 96 97 98 97 96 96 95 96 98 97 96 96 96 96
72 79 85 84 80 82 94 93 91 91 90 95 88 89 96 96 97 97 97 96 95 94 93 95 97 97 97 99 98 96 95 96 96 95 94 95 94 93 93 94 96 94 95
70 76 87 80 82 81 83 94 93 93 93 95 90 86 96 98 98 98 98 97 96 96 95 98 98 99 100 100 100 96 96 95 95 97 95 92 91 91 93 93 93 93 94
79 84 88 85 87 85 87 86 91 91 95 94 87 88 94 95 98 98 98 98 99 97 98 97 97 99 99 99 98 96 95 96 96 95 95 94 92 90 91 91 90 90 88
82 82 86 85 84 87 88 91 86 90 92 94 88 91 93 93 96 98 98 98 98 98 98 98 98 98 98 97 96 95 95 96 96 96 95 96 96 95 92 92 93 92 89
81 80 82 83 84 86 88 93 92 92 91 92 94 95 94 97 98 98 98 98 98 98 98 97 98 97 98 96 95 93 94 96 97 95 95 94 96 92 86 89 89 86 84
81 82 82 82 83 84 89 96 97 98 98 95 92 93 97 98 98 98 98 98 96 97 96 97 96 96 97 93 92 90 91 96 95 94 96 92 94 90 86 87 87 90 80
86 82 80 84 86 86 93 97 97 98 99 99 99 99 98 98 97 97 96 97 97 97 97 97 96 94 93 94 90 87 86 88 89 90 92 93 89 87 85 83 85 88 81
85 83 85 87 84 85 92 96 97 97 95 95 96 97 97 95 95 96 97 96 96 97 97 97 97 96 96 92 90 88 88 85 89 93 94 94 88 87 87 88 89 89 89
87 81 86 90 87 85 88 96 96 91 93 95 97 96 95 96 95 96 97 96 94 95 96 96 96 97 96 95 90 90 89 87 90 90 91 87 86 87 89 87 86 86 87
91 84 88 93 95 87 86 90 90 88 86 92 94 94 97 96 97 96 95 95 96 95 93 92 94 94 94 95 94 93 94 93 92 91 89 91 92 90 88 87 87 87 85
91 88 91 92 93 88 87 86 87 86 90 89 87 91 88 87 91 90 89 89 89 86 89 91 90 92 94 96 94 92 93 92 92 92 90 91 89 87 84 83 79 78 75
90 89 89 89 89 88 88 83 85 88 88 91 91 91 89 89 89 91 96 93 93 92 89 86 89 92 89 90 92 92 91 90 87 85 89 93 92 89 82 84 83 79 79

GFSMW_sfc_rhum_117.txt.gz
RH
18 20 26 29 35 59 65 74 81 84 87 91 97 97 96 93 95 95 86 86 91 94 97 96 96 93 93 78 71 66 69 66 62 67 69 68 69 70 63 61 58 61 62
20 27 32 34 49 63 74 78 78 87 81 81 86 87 92 94 88 90 88 93 92 94 97 96 94 91 90 84 76 68 64 64 67 62 62 76 72 68 67 64 63 67 58
39 41 43 45 54 67 80 80 79 85 82 78 81 82 92 96 97 97 97 96 96 95 98 94 92 91 83 80 74 69 66 68 69 65 56 72 68 72 67 71 64 67 65
45 43 45 45 54 61 75 77 82 84 83 80 79 84 89 94 92 95 95 95 94 95 94 94 94 88 78 77 71 67 65 70 72 66 55 55 60 60 77 67 68 66 68
49 48 48 48 51 68 78 80 83 84 86 88 82 78 91 90 86 91 94 92 94 93 92 94 94 91 79 73 70 71 68 61 63 65 61 60 59 61 58 64 67 65 63
51 47 47 45 48 80 86 85 86 84 88 87 84 82 89 89 93 92 98 91 96 96 93 95 95 92 81 77 71 73 72 71 65 60 58 55 53 55 53 56 63 60 60
47 48 48 48 49 68 85 83 88 89 91 87 87 85 85 83 82 90 91 96 92 95 96 93 95 91 86 79 75 75 74 73 70 72 65 58 52 55 59 62 73 73 64
45 47 50 51 50 55 76 86 86 88 87 88 88 86 81 80 81 85 90 89 96 95 91 92 90 91 86 77 77 76 76 75 79 76 73 71 73 70 67 70 82 82 69
51 54 55 55 59 59 60 87 87 85 89 89 89 84 81 84 86 89 91 92 92 90 97 92 91 89 89 86 77 78 78 78 83 83 84 82 84 85 87 85 85 89 91
55 57 58 60 63 68 61 81 86 87 88 84 82 77 78 77 82 82 83 84 89 92 96 94 96 92 88 85 83 81 80 82 86 87 85 90 92 92 96 96 94 94 93
59 55 56 58 56 68 74 86 92 88 91 83 78 78 83 84 88 88 86 79 82 82 84 90 97 97 94 88 88 85 84 81 88 89 89 92 94 97 98 98 98 98 97
61 56 56 53 59 68 85 90 93 89 89 79 77 78 82 86 89 90 85 86 94 92 92 93 94 94 97 92 92 92 87 84 91 92 92 94 94 94 93 96 96 96 96
57 54 55 60 66 70 78 92 92 88 85 84 79 82 82 90 91 86 91 90 93 96 97 97 98 99 95 95 93 91 91 91 91 89 90 89 93 95 96 96 97 98 99
58 57 59 70 75 74 77 88 94 91 90 88 74 81 83 91 91 91 92 92 92 98 97 96 97 99 98 96 95 94 94 95 95 94 93 93 95 95 99 99 99 98 98
56 58 70 77 84 78 78 84 92 95 92 90 82 80 85 91 92 94 92 95 93 93 94 96 98 98 99 98 98 98 98 98 98 98 96 98 97 97 98 98 98 96 96
67 74 75 78 86 82 82 83 90 96 92 90 83 80 91 92 93 95 96 96 96 94 96 98 99 99 99 100 100 98 97 96 96 97 96 95 95 94 94 92 92 94 94
73 74 78 83 82 85 85 90 90 91 91 90 81 82 91 94 95 94 95 97 98 96 98 98 98 98 99 99 98 98 96 96 96 96 95 94 91 90 88 89 88 87 86
76 75 77 77 76 80 88 91 88 89 95 90 83 86 88 93 94 97 98 98 98 98 98 98 98 97 98 97 97 95 94 96 96 95 94 95 95 91 90 90 92 91 87
75 76 76 77 76 78 86 92 91 91 95 94 87 83 83 94 98 98 98 98 97 97 97 97 97 97 98 96 95 93 94 95 97 94 93 93 94 87 83 88 90 88 87
77 78 75 73 77 81 85 91 92 94 98 95 88 84 86 96 97 97 97 97 95 97 97 97 96 96 97 95 94 90 92 95 96 95 95 90 92 82 78 81 82 87 74
79 75 76 81 83 81 86 92 92 97 96 98 97 98 96 97 96 97 95 95 96 95 97 97 96 95 94 96 91 88 86 89 89 90 93 92 86 83 78 77 79 81 77
82 77 83 85 83 81 86 91 95 96 97 97 97 98 97 96 96 96 96 95 96 97 97 97 97 96 95 90 88 88 89 87 89 93 93 90 84 83 82 82 84 84 78
86 80 84 87 85 83 85 93 94 92 95 96 98 96 96 97 96 97 98 96 94 95 96 96 96 97 94 94 89 90 89 87 90 89 89 87 85 86 87 84 83 83 83
89 81 83 88 90 84 85 90 89 90 91 95 98 100 98 98 98 96 97 96 96 96 95 95 95 95 94 94 93 92 90 88 91 93 90 89 90 88 86 86 84 74 66
82 78 82 85 88 83 84 85 88 87 91 91 95 95 95 94 94 94 95 94 97 94 92 91 90 92 94 94 89 89 92 93 92 91 90 91 87 82 79 74 63 58 57
83 82 78 81 84 83 86 86 85 88 91 90 90 94 95 96 93 93 97 93 93 92 90 86 87 91 90 90 91 91 92 92 90 83 82 87 83 78 75 75 70 64 64

GFSMW_sfc_rhum_120.txt.gz
RH
11 12 20 26 31 33 32 38 40 48 56 69 80 88 87 86 84 81 78 82 80 92 93 95 96 94 95 93 83 71 60 51 56 58 62 53 54 53 52 49 41 43 44
14 20 24 29 34 39 43 44 46 53 55 67 74 74 80 78 77 84 80 82 79 87 91 93 96 94 94 94 81 72 57 50 53 57 56 76 68 56 55 51 44 49 42
25 27 31 33 36 39 46 44 44 54 61 57 71 69 75 80 91 92 91 85 74 75 86 91 97 95 94 94 90 74 68 59 58 53 49 59 61 58 55 57 50 54 48
30 30 30 32 36 46 52 49 49 56 74 67 74 72 74 76 73 76 87 81 76 81 88 92 96 96 93 92 90 76 64 58 60 52 40 44 41 55 67 56 54 52 53
36 29 28 31 31 46 58 57 55 73 74 77 68 66 64 57 65 87 85 84 93 88 81 93 96 95 93 90 86 81 67 59 57 54 50 48 48 48 44 56 57 53 50
30 28 27 30 32 41 56 70 69 74 80 82 71 66 64 63 72 86 79 83 94 94 93 94 95 94 95 92 89 82 71 62 58 52 54 51 50 46 44 42 54 55 53
33 31 32 34 39 45 46 59 77 78 86 88 74 69 68 66 72 75 78 78 94 96 97 94 96 96 94 92 86 79 67 65 60 62 55 46 44 38 40 40 46 50 52
33 32 35 40 43 50 52 48 57 78 82 90 87 76 68 67 74 72 70 81 90 92 90 93 90 95 94 92 86 78 66 66 66 66 59 49 45 40 40 41 54 61 56
36 32 32 40 43 48 58 56 52 65 80 89 86 82 78 66 65 69 72 76 83 89 90 90 92 92 94 93 86 78 73 70 71 71 68 54 48 52 50 56 61 64 78
30 32 32 36 36 42 50 67 62 66 74 83 88 78 73 63 65 70 73 78 86 90 96 95 93 91 89 90 89 81 74 73 73 66 69 64 66 75 78 75 70 69 72
26 32 35 33 33 40 46 61 77 78 78 83 88 80 74 67 69 78 77 78 84 89 95 96 96 95 91 87 87 91 83 72 70 69 68 71 79 88 89 90 86 85 84
27 32 34 36 37 44 48 56 80 88 85 84 88 84 75 64 68 69 68 70 70 70 74 83 92 98 94 92 88 86 79 72 69 72 75 76 83 87 91 92 85 94 93
24 29 33 38 45 50 52 57 73 84 87 85 88 87 79 66 70 66 70 81 83 82 88 89 92 92 95 97 94 85 83 82 77 76 76 81 86 92 94 93 94 95 97
22 29 37 42 45 49 58 61 82 86 91 90 90 89 76 66 65 66 78 84 84 84 93 92 92 96 97 98 94 93 90 89 88 88 87 90 91 89 94 94 93 96 99
23 35 43 49 52 58 62 69 83 86 89 94 93 85 71 72 68 73 81 81 83 88 88 88 92 98 99 99 96 95 96 97 98 98 98 99 99 99 99 99 99 99 98
39 48 51 53 58 61 70 80 85 89 89 95 92 76 71 73 71 75 83 88 90 91 93 93 96 97 96 100 100 98 97 97 97 97 97 96 96 96 96 96 96 97 97
56 56 56 57 60 62 70 85 89 88 89 94 92 77 68 70 73 75 81 93 97 96 98 98 97 97 97 98 98 96 95 96 96 97 96 95 94 92 92 93 92 91 91
58 56 56 58 59 61 66 82 86 89 92 92 94 80 71 72 70 80 91 97 96 97 97 98 97 97 96 96 95 94 94 96 95 96 97 96 96 95 93 90 91 90 85
58 57 56 59 60 66 71 81 86 88 90 92 94 84 77 79 84 95 96 96 97 97 96 96 97 96 97 94 93 91 94 95 97 95 96 95 95 90 84 87 89 86 85
62 60 60 61 67 73 74 81 86 92 90 94 96 88 81 90 96 96 97 95 96 96 95 96 96 96 96 95 93 89 90 96 95 95 96 89 88 81 78 79 78 85 81
66 64 65 72 77 76 77 85 86 93 93 94 95 93 92 96 94 96 95 95 97 97 97 97 97 96 94 97 91 88 88 90 91 90 91 88 78 75 72 69 72 76 74
71 68 71 75 74 76 79 82 89 92 96 95 96 99 97 95 94 96 96 95 96 97 97 97 97 96 96 92 90 89 87 85 89 92 91 85 77 77 77 79 79 78 77
72 66 68 72 74 76 79 87 88 88 93 96 97 97 97 97 95 97 98 97 94 95 96 96 96 97 94 94 89 87 86 85 88 87 85 80 80 84 85 81 82 82 80
66 61 62 65 74 78 79 83 84 87 92 100 100 100 100 99 99 98 98 98 98 97 97 97 97 96 94 94 92 91 90 88 90 91 88 89 93 89 86 83 81 78 71
64 62 66 64 69 79 82 83 84 84 91 96 99 98 99 97 97 96 96 96 96 93 94 93 92 94 95 94 88 88 91 91 90 92 93 92 80 71 66 60 54 51 52
70 71 69 68 65 76 83 85 86 85 89 90 94 95 96 97 96 95 97 96 94 96 95 94 91 95 92 91 88 88 91 92 92 88 90 79 72 64 58 62 61 57 58

GFSMW_sfc_rhum_123.txt.gz
RH
7 8 11 16 21 25 29 29 32 38 33 36 48 56 68 84 84 83 67 76 84 80 90 90 91 92 95 92 93 92 84 61 57 66 69 63 64 57 52 42 37 40 40
9 11 16 21 26 28 31 35 34 37 36 34 43 54 71 83 82 78 71 67 73 87 84 86 94 92 96 94 95 93 86 66 69 62 65 80 78 68 52 49 44 49 37
12 17 21 23 29 33 44 39 35 36 41 42 46 75 81 86 91 84 75 69 71 75 82 88 94 95 93 96 94 94 88 69 66 64 58 71 68 72 62 60 50 51 43
20 20 20 22 27 35 45 44 41 38 43 49 57 81 84 85 84 80 79 70 69 69 69 76 89 96 94 94 94 93 90 74 68 63 53 51 47 64 77 58 61 48 45
24 22 22 23 24 35 40 52 48 45 50 58 59 74 84 69 70 68 77 77 74 68 69 80 89 97 96 94 92 95 90 75 70 60 60 53 46 54 54 66 63 60 44
25 22 23 24 24 40 47 42 53 54 69 74 75 80 81 70 68 65 74 74 81 80 75 78 89 92 96 94 94 93 90 83 71 61 54 50 49 55 50 54 57 60 51
27 25 25 27 30 37 44 44 39 54 66 76 77 83 81 77 66 68 72 79 90 86 83 84 95 96 94 95 93 93 91 81 72 66 56 50 48 44 44 46 53 55 57
28 25 25 28 30 35 40 50 42 43 60 70 78 88 82 76 58 60 68 69 79 87 87 92 92 92 95 96 93 93 92 85 86 75 62 53 51 45 43 43 58 64 64
27 24 24 27 29 28 35 51 54 44 60 72 73 86 88 77 62 58 72 65 80 80 87 89 92 92 95 96 97 95 95 94 90 88 70 61 54 52 47 44 47 56 71
19 20 23 26 26 29 34 46 53 54 56 64 74 87 88 80 69 64 70 72 68 83 89 90 91 93 93 95 96 96 94 94 90 81 69 65 56 55 52 50 52 56 63
12 17 23 26 27 32 37 45 50 60 67 67 74 83 90 87 78 70 72 71 75 73 85 92 94 95 94 93 94 95 92 90 84 73 71 70 66 63 65 70 70 79 75
11 12 22 25 29 35 39 42 53 55 67 74 76 79 88 90 80 74 64 68 69 74 88 94 93 93 93 94 92 92 91 89 84 78 74 71 67 77 78 80 83 80 78
12 10 16 22 28 35 43 46 49 56 61 72 83 83 88 89 83 77 70 77 73 68 75 79 86 96 95 94 93 90 90 89 84 78 72 67 68 80 84 84 88 87 96
12 12 14 23 28 38 47 51 58 59 66 80 90 87 89 88 82 72 74 80 72 67 67 71 72 81 92 92 94 94 94 91 89 87 79 72 77 80 86 89 93 98 99
14 18 22 32 40 45 47 50 60 62 69 82 90 90 89 92 79 78 80 79 77 72 77 84 90 90 92 92 95 93 94 94 89 93 95 94 94 98 98 96 98 98 99
17 23 34 40 46 48 50 52 61 71 73 85 88 90 92 88 80 83 82 82 80 78 83 86 95 95 92 100 100 100 99 100 98 98 98 98 98 98 98 97 98 100 99
38 39 46 47 49 51 52 59 64 68 79 86 83 87 90 85 76 80 80 82 87 92 96 97 95 96 96 98 98 97 97 97 98 98 98 98 99 97 95 96 94 94 94
45 46 48 48 48 50 59 68 65 71 79 86 84 86 90 82 71 81 86 96 95 97 97 98 96 96 94 96 95 94 94 96 99 99 100 97 98 97 95 94 94 94 90
53 51 47 49 50 58 64 68 74 71 77 85 85 87 94 76 72 92 98 96 96 97 97 97 97 96 96 94 93 90 92 95 97 97 97 96 96 94 92 91 91 89 90
56 54 51 54 60 64 66 68 75 77 79 87 90 89 94 78 87 98 97 97 96 97 97 97 96 95 95 93 90 87 89 95 95 95 96 94 94 92 86 83 83 90 88
61 55 54 61 65 64 69 74 74 83 85 88 91 89 91 94 92 96 96 97 97 97 98 97 98 96 94 96 91 87 86 90 91 91 92 89 79 75 72 69 70 71 68
56 50 51 55 58 64 72 74 76 81 83 92 94 95 98 98 95 95 97 97 97 97 97 97 97 97 97 94 92 90 88 86 90 92 87 81 76 75 75 74 73 72 74
49 46 47 50 53 57 71 79 80 81 87 96 98 98 97 99 97 97 98 97 97 96 97 96 97 97 95 95 91 90 89 86 87 82 77 77 79 78 78 77 78 80 83
51 48 50 52 55 57 64 77 79 84 93 98 100 100 99 100 100 99 99 99 98 97 97 97 97 97 95 94 92 91 90 86 86 85 87 87 86 86 89 87 85 78 64
55 56 60 62 60 58 64 76 81 85 90 97 98 100 98 97 97 97 97 98 99 94 96 95 93 95 96 96 91 89 91 90 89 89 89 89 87 90 85 69 55 50 49
66 68 69 70 67 62 66 80 83 89 93 97 97 98 97 97 96 94 97 96 93 92 92 89 88 93 92 90 89 89 90 90 91 91 93 94 90 72 56 60 58 56 57